パンスターズ彗星

P/2022 O2 ( PanSTARRS )

English version
Home page
Updated on November 13, 2022

---------------------------------------------------------------------

・ プロフィール

発見日 2022年8月17日
発見光度 20.3等
発見者 Pan-STARRS 2 telescope (Haleakala)

・ 写真集

・ 軌道要素

Epoch 2022 Aug. 9.0 TT = JDT 2459800.5
T 2023 Jan. 7.13393 TT                                  Rudenko
q   1.7566973            (2000.0)            P               Q
n   0.06217861     Peri.   48.65368     +0.93965288     -0.33248806
a   6.3101844      Node   330.49955     +0.24401999     +0.81653530
e   0.7216092      Incl.    9.42615     +0.23980558     +0.47193409
P  15.9
>From 53 observations 2022 July 5-Oct. 26, mean residual 0".3.

・ 光度変化

        m1 = 16.0 + 5 logΔ + 10.0 log r

---------------------------------------------------------------------

軌道要素はM.P.E.C. 2022-V125に掲載されたものです。
光度グラフはComet for Windowsで作成したものです。

---------------------------------------------------------------------

Copyright(C) Seiichi Yoshida (comet@aerith.net). All rights reserved.